GW0143 Weather Reports


time (UTC)temp
F
wind
direction
speed
knots
gust
knots
rain 1hr
in
rain 24hr
in
rain mn
in
humidity
%
barometer
mb
20260901070107 58 190 7.8 7.8 0.00 0.02 0.00 65 1028.8
20260901065107 58 187 7.8 7.8 0.00 0.02 0.00 61 1028.7
20260901064107 57 199 6.1 7.0 0.00 0.02 0.00 66 1028.7
20260901063107 58 197 7.0 7.8 0.00 0.02 0.00 64 1028.7
20260901062108 58 185 5.2 6.1 0.00 0.02 0.00 66 1028.7
20260901061148 58 180 7.8 8.7 0.00 0.02 0.00 64 1028.8
20260901060148 59 174 7.8 9.6 0.00 0.02 0.00 62 1028.8
20260901055108 58 162 7.0 7.8 0.00 0.02 0.02 67 1028.7
20260901054108 58 179 6.1 6.1 0.00 0.02 0.02 66 1028.8
20260901053109 57 188 6.1 9.6 0.00 0.02 0.02 68 1028.9
20260901052109 56 167 6.1 7.0 0.00 0.02 0.02 74 1028.9
20260901051109 56 179 4.3 5.2 0.00 0.02 0.02 77 1028.8
20260901050109 56 177 4.3 5.2 0.00 0.02 0.02 78 1029.0
20260901045109 57 205 5.2 6.1 0.00 0.02 0.02 78 1029.1
20260901044017 57 213 4.3 6.1 0.00 0.02 0.02 77 1029.1
20260901043018 57 175 6.1 7.8 0.00 0.02 0.02 74 1029.1
20260901042018 57 168 5.2 6.1 0.00 0.02 0.02 76 1029.0
20260901041018 57 152 4.3 5.2 0.00 0.02 0.02 75 1028.9
20260901040018 57 146 3.5 5.2 0.00 0.02 0.02 78 1029.0
20260901035018 58 149 4.3 5.2 0.00 0.02 0.02 77 1029.0
20260901034019 58 153 3.5 4.3 0.00 0.02 0.02 77 1028.9
20260901033030 58 178 4.3 7.0 0.00 0.02 0.02 75 1028.8
20260901032028 57 205 2.6 3.5 0.00 0.02 0.02 75 1029.0
20260901031028 56 190 2.6 4.3 0.00 0.02 0.02 81 1029.1
20260901030019 55 204 3.5 6.1 0.00 0.02 0.02 85 1029.2
20260901025028 56 190 3.5 4.3 0.00 0.02 0.02 83 1029.1
20260901024028 57 353 1.7 4.3 0.00 0.02 0.02 81 1028.7
20260901023020 58 36 3.5 6.1 0.00 0.02 0.02 78 1028.7
20260901022020 59 25 5.2 7.8 0.02 0.02 0.02 77 1028.9
20260901021029 59 114 0.9 1.7 0.02 0.02 0.02 72 1028.8
20260901020049 59 182 1.7 3.5 0.02 0.02 0.02 76 1028.6
20260901015020 60 187 3.5 5.2 0.02 0.02 0.02 73 1028.3
20260901014020 61 191 5.2 7.8 0.02 0.02 0.02 69 1028.3
20260901013021 62 199 3.5 7.0 0.02 0.02 0.02 72 1028.4
20260901012030 63 197 2.6 3.5 0.00 0.00 0.00 62 1028.3
20260901011030 63 189 2.6 3.5 0.00 0.00 0.00 61 1028.2
20260901010030 63 292 2.6 4.3 0.00 0.00 0.00 61 1028.2
20260901005022 63 250 3.5 5.2 0.00 0.00 0.00 62 1028.0
20260901004022 64 215 6.1 8.7 0.00 0.00 0.00 58 1027.7
20260901003039 65 193 7.8 9.6 0.00 0.00 0.00 55 1027.4
20260901002019 65 187 8.7 12.2 0.00 0.00 0.00 54 1027.3
20260901001059 66 187 9.6 13.0 0.00 0.00 0.00 52 1027.3
20260901000017 67 213 8.7 10.4 0.00 0.00 0.00 53 1027.3
20260831235020 68 189 9.6 13.0 0.00 0.00 0.00 48 1027.3
20260831234020 68 193 9.6 13.0 0.00 0.00 0.00 48 1027.2
20260831233021 69 189 9.6 13.0 0.00 0.00 0.00 47 1027.1
20260831232017 69 185 7.8 11.3 0.00 0.00 0.00 47 1027.1
20260831231018 70 185 7.0 10.4 0.00 0.00 0.00 45 1027.1
20260831230041 70 175 8.7 12.2 0.00 0.00 0.00 45 1027.2
20260831225038 70 173 7.0 12.2 0.00 0.00 0.00 44 1027.4
20260831224018 70 181 7.8 12.2 0.00 0.00 0.00 43 1027.6
20260831223019 70 178 9.6 15.6 0.00 0.00 0.00 44 1027.7
20260831222017 71 183 10.4 15.6 0.00 0.00 0.00 44 1027.8
20260831221019 71 173 10.4 15.6 0.00 0.00 0.00 42 1027.9
20260831220019 69 169 7.8 12.2 0.00 0.00 0.00 42 1028.1
20260831215019 70 184 10.4 14.8 0.00 0.00 0.00 46 1028.3
20260831214017 71 200 10.4 15.6 0.00 0.00 0.00 40 1028.4
20260831213017 71 249 6.1 11.3 0.00 0.00 0.00 35 1028.4
20260831212020 71 269 8.7 12.2 0.00 0.00 0.00 33 1028.3
20260831211040 70 271 3.5 7.0 0.00 0.00 0.00 38 1028.5
20260831210018 70 42 3.5 6.1 0.00 0.00 0.00 39 1028.3
20260831205019 71 358 3.5 7.0 0.00 0.00 0.00 38 1028.4
20260831204020 72 80 2.6 6.1 0.00 0.00 0.00 38 1028.3
20260831203019 72 154 1.7 3.5 0.00 0.00 0.00 38 1028.4
20260831202019 72 84 4.3 7.8 0.00 0.00 0.00 38 1028.6
20260831201019 72 178 2.6 6.1 0.00 0.00 0.00 39 1028.8
20260831200019 72 5 3.5 6.1 0.00 0.00 0.00 39 1028.9
20260831195019 70 134 1.7 5.2 0.00 0.00 0.00 42 1029.2
20260831194101 69 6 2.6 7.0 0.00 0.00 0.00 43 1029.4
20260831193020 69 39 4.3 7.0 0.00 0.00 0.00 44 1029.4
20260831192020 68 52 4.3 7.0 0.00 0.00 0.00 46 1029.6
20260831191021 67 91 1.7 2.6 0.00 0.00 0.00 46 1029.8
20260831190020 66 0 1.7 2.6 0.00 0.00 0.00 46 1029.8
20260831185021 66 347 1.7 4.3 0.00 0.00 0.00 49 1030.1
20260831184021 65 345 4.3 5.2 0.00 0.00 0.00 52 1030.1
20260831183021 65 317 2.6 4.3 0.00 0.00 0.00 56 1030.3
20260831182022 65 234 2.6 5.2 0.00 0.00 0.00 51 1030.4
20260831181022 63 248 5.2 7.0 0.00 0.00 0.00 54 1030.5
20260831180022 60 348 1.7 2.6 0.00 0.00 0.00 68 1030.9
20260831175022 61 332 2.6 3.5 0.00 0.00 0.00 71 1031.1
20260831174022 61 259 2.6 2.6 0.00 0.00 0.00 67 1030.9
20260831172106 64 275 2.6 4.3 0.00 0.00 0.00 61 1030.7
20260831171106 65 316 0.9 1.7 0.00 0.00 0.00 48 1030.3
20260831170106 65 224 4.3 5.2 0.00 0.00 0.00 49 1030.7
20260831165106 64 180 4.3 6.1 0.00 0.00 0.00 52 1030.6
20260831164127 64 170 4.3 6.1 0.00 0.00 0.00 52 1030.7
20260831163107 64 185 6.1 7.0 0.00 0.00 0.00 51 1030.7
20260831162107 63 185 1.7 1.7 0.00 0.00 0.00 58 1030.6
20260831161128 0 186 2.6 2.6 0.00 0.00 0.00 1030.5